Regional Weather Roundup
Issued by NWS San Angelo, TX

Home | Current Version | Previous Version | Text Only | Print | Product List | Glossary On
Versions: 1 2 3 4 5 6 7 8 9 10 11 12 13 14 15 16 17 18 19 20 21 22 23 24 25 26 27 28 29 30 31 32 33 34 35 36 37 38 39 40 41 42 43 44 45 46 47 48 49 50
000
ASUS44 KSJT 241610
RWRSJT
WEST CENTRAL TEXAS REGIONAL WEATHER ROUNDUP
NATIONAL WEATHER SERVICE SAN ANGELO TX
1100 AM CDT SAT JUN 24 2017

NOTE: "FAIR" INDICATES FEW OR NO CLOUDS BELOW 12,000 FEET WITH NO
SIGNIFICANT WEATHER AND/OR OBSTRUCTIONS TO VISIBILITY.

TXZ049-054-064>066-071>073-076>078-098-099-113-114-127-128-139-140-
154-155-168>170-241700
...LOCATIONS ACROSS WEST CENTRAL TEXAS...

CITY           SKY/WX    TMP DP  RH WIND       PRES   REMARKS
SAN ANGELO     NOT AVBL
ABILENE        CLOUDY    69  68  96 E18G26    30.16F
DYESS AFB      CLOUDY    69  68  96 NE5       30.18S
JUNCTION       CLOUDY    74  71  91 NE9       30.16R
SWEETWATER     CLOUDY    72  65  78 E14G23    30.24R
BROWNWOOD      NOT AVBL
COLEMAN        LGT RAIN  68  64  89 E17G23    30.19F
SONORA         CLOUDY    77  68  73 NE12G21   30.20R
OZONA          FAIR      73  64  73 NE29      30.20S
BRADY          NOT AVBL
$$

TEXAS PANHANDLE/OKLAHOMA PANHANDLE

CITY           SKY/WX    TMP DP  RH WIND       PRES   REMARKS
AMARILLO       CLOUDY    63  54  72 E13       30.32R
BORGER         CLOUDY    68  52  56 SE3       30.30R
CANADIAN       CLOUDY    75  51  42 E15       30.27S
DALHART        CLOUDY    68  50  52 S12       30.33S
DUMAS          CLOUDY    65  47  50 SE9       30.32R
GUYMON         NOT AVBL
HEREFORD       CLOUDY    65  57  76 E10       30.32F
PAMPA          CLOUDY    72  50  45 SE14      30.32R
PERRYTON       CLOUDY    74  48  39 SE14      30.28S
$$

SOUTHERN PANHANDLE/SOUTH PLAINS/ROLLING PLAINS

CITY           SKY/WX    TMP DP  RH WIND       PRES   REMARKS
LUBBOCK        CLOUDY    68  56  65 E14       30.28R
SNYDER         CLOUDY    67  63  88 E9        30.25R
CHILDRESS      PTSUNNY   68  61  78 E7        30.26R
SEMINOLE       CLOUDY    68  59  72 E9G16     30.28S
$$

PERMIAN BASIN

CITY           SKY/WX    TMP DP  RH WIND       PRES   REMARKS
MIDLAND        CLOUDY    75  61  61 E18       30.24R
ODESSA         CLOUDY    72  62  71 E21G29    30.25R
WINK           SUNNY     77  59  53 MISG      30.19R
$$

FAR WEST/SOUTHWEST MOUNTAINS/TRANS PECOS

CITY           SKY/WX    TMP DP  RH WIND       PRES   REMARKS
ALPINE         SUNNY     75  58  55 NE12      30.30R
DRYDEN           N/A     85  60  42 NE16G25   30.12R
EL PASO        MOSUNNY   87  55  33 E17G23    30.12S
FORT STOCKTON  SUNNY     80  59  48 E21       30.19R
GUADALUPE PASS SUNNY     68  52  56 E35G48    30.28R
MARFA          SUNNY     77  59  53 NE21      30.25R
PECOS          SUNNY     78  58  49 E10G17    30.20R
$$

DALLAS/FORT WORTH METROPLEX

CITY           SKY/WX    TMP DP  RH WIND       PRES   REMARKS
DFW AIRPORT    LGT RAIN  71  67  87 E7        30.15S
FTW MEACHAM    RAIN      72  70  93 CALM      30.17F
DAL-EXECUTIVE  LGT RAIN  70  68  93 N9        30.14F
GRAND PRAIRIE  MOSUNNY   70  70 100 NE6       30.18F
ADDISON        CLOUDY    70  66  88 S3        30.17F
MESQUITE       CLOUDY    70  66  88 W8G16     30.16F
LANCASTER      LGT RAIN  69  68  97 N8        30.15F
$$

NORTH CENTRAL TEXAS

CITY           SKY/WX    TMP DP  RH WIND       PRES   REMARKS
SHRMAN/DENISON LGT RAIN  68  67  96 N3        30.19R
GAINESVILLE    LGT RAIN  67  66  96 NE5       30.20S
BRIDGEPORT     RAIN      68  68 100 SE10G17   30.16F
DENTON         LGT RAIN  71  71 100 CALM      30.17S
WAXAHACHIE     LGT RAIN  71  68  90 NW7       30.16F
GRANBURY       RAIN      72  69  90 CALM      30.22R
$$

WESTERN NORTH TEXAS

CITY           SKY/WX    TMP DP  RH WIND       PRES   REMARKS
WICHITA FALLS  CLOUDY    68  64  87 E13       30.19R
VERNON           N/A    N/A N/A N/A E10       30.20F
BRECKENRIDGE   CLOUDY    70  69  96 SE14G20   30.16F FOG
COMANCHE       RAIN      67  67 100 W3        30.24R
$$

CENTRAL AND SOUTH CENTRAL TEXAS

CITY           SKY/WX    TMP DP  RH WIND       PRES   REMARKS
AUSTIN/BERGSTM CLOUDY    78  69  73 NW8       30.07R
WACO           LGT RAIN  72  71  97 N9        30.15S
HILLSBORO      DRIZZLE   73  71  94 N13G20    30.18R
TEMPLE         LGT RAIN  72  70  94 NW14G21   30.16R
KILLEEN-GRAY   LGT RAIN  70  68  94 NW15G25   30.18R
FORT HOOD      CLOUDY    69  68  97 NW17G23   30.15R
GEORGETOWN     MOSUNNY   75  68  78 NW12      30.13R
LAGO VISTA     PTSUNNY   72  70  92 N10G17    30.15R
SAN MARCOS     SUNNY     81  70  69 N12       30.08R
NEW BRAUNFELS  CLOUDY    85  74  69 NE16      30.06R
RANDOLPH AFB   CLOUDY    84  75  74 N12       30.06R
SAN ANTONIO    CLOUDY    85  72  65 N12       30.07R
STINSON        CLOUDY    88  73  61 NW8       30.03S
PLEASANTON     NOT AVBL
LA GRANGE      CLOUDY    82  73  74 SE3       30.06R
GIDDINGS       CLOUDY    78  70  76 NE5       30.08R
$$

EAST TEXAS

CITY           SKY/WX    TMP DP  RH WIND       PRES   REMARKS
PARIS            N/A     77  68  73 E12       30.16F
CLARKSVILLE    NOT AVBL
TYLER          CLOUDY    74  72  93 N6        30.14R
LONGVIEW       PTSUNNY   77  74  90 NW14      30.11R
PALESTINE      CLOUDY    73  71  93 N12G17    30.15S
NACOGDOCHES    CLOUDY    77  72  83 MISG      30.09R
$$

TEXAS HILL COUNTRY AND EDWARDS PLATEAU

CITY           SKY/WX    TMP DP  RH WIND       PRES   REMARKS
LLANO          LGT RAIN  70  68  94 E10       30.22R
HORSESHOE BAY  RAIN      71  69  93 MISG      30.19R
KERRVILLE      CLOUDY    82  73  76 N14       30.14R
FREDERICKSBRG  TSTM      71  67  88 NE15G22   30.18R
ROCKSPRINGS    CLOUDY    79  70  73 E7        30.15S
HONDO          CLOUDY    86  73  65 NE7       30.07R
UVALDE         CLOUDY    85  73  66 E10       30.07R
DEL RIO        CLOUDY    84  76  76 NE8       30.04R
$$

SOUTHEAST TEXAS

CITY           SKY/WX    TMP DP  RH WIND       PRES   REMARKS
COLLEGE STN    CLOUDY    81  73  76 NE9       30.09R
CALDWELL       NOT AVBL
CROCKETT       CLOUDY    73  70  88 N9        30.16R
BRENHAM        CLOUDY    83  75  76 SE6       30.07R
HUNTSVILLE     CLOUDY    80  71  74 N8        30.11R
CONROE         CLOUDY    75  74  96 E5        30.09R
HOUSTON BUSH   HVY RAIN  75  73  93 SE13      30.08R FOG
HOUSTON HOBBY  LGT RAIN  76  74  93 N9        30.06S
PERLAND        LGT RAIN  78  74  87 N6        30.07R
WHARTON        CLOUDY    78  74  87 N6        30.06R THUNDER
$$

THE UPPER TEXAS COAST

CITY           SKY/WX    TMP DP  RH WIND       PRES   REMARKS
ORANGE         PTSUNNY   83  78  83 CALM      30.06R
PORT ARTHUR    CLOUDY    86  75  69 S8        30.03R
GALVESTON      CLOUDY    85  79  82 SE5       30.05R
ANGLETON       CLOUDY    87  78  74 SE9       30.03R
BAY CITY       CLOUDY    88  76  68 SE9       30.02R
$$

TEXAS COASTAL BEND, RIO GRANDE PLAINS DEEP SOUTH TEXAS

CITY           SKY/WX    TMP DP  RH WIND       PRES   REMARKS
VICTORIA       LGT RAIN  80  75  84 N5        30.02R
BEEVILLE       PTSUNNY   89  75  63 SE13      30.00R
ROCKPORT       MOSUNNY   90  76  63 SE12      29.99R
PORT ARANSAS   MOSUNNY   87  76  69 S10       29.99R
PORT LAVACA    MOSUNNY   88  78  71 S10       30.01R
CORPUS CHRISTI PTSUNNY   91  77  63 SE14      29.98R
KINGSVILLE NAS PTSUNNY   89  79  72 SW13      29.98R
COTULLA        PTSUNNY   87  72  60 VRB5      30.02R
LAREDO         MOSUNNY   90  73  58 SE12      29.99R
BROWNSVILLE    PTSUNNY   89  76  65 SE16      29.95S
PORT ISABEL    MOSUNNY   90  77  65 SE15G28   29.95R
HEBBRONVILLE   PTSUNNY   87  72  59 S5        30.00R
MCALLEN        PTSUNNY   94  74  52 SE15      29.94S
WESLACO        PTSUNNY   89  74  60 S9        29.94S
FALFURRIAS     MOSUNNY   91  73  55 SE7G16    29.96R
EDINBURG       PTSUNNY   95  73  48 SE14      29.95R
$$




USA.gov is the U.S. government's official web portal to all federal, state and local government web resources and services.